Regional Weather Roundup
Issued by NWS

Home | Current Version | Previous Version | Graphics & Text | Print | Product List | Glossary On
Versions: 1 2 3 4 5 6 7 8 9 10 11 12 13 14 15 16 17 18 19 20 21 22 23 24 25 26 27 28 29 30 31 32 33 34 35 36 37 38 39 40 41 42 43 44 45 46 47 48 49 50
000
ASUS45 KSLC 301810
RWRUT

UTAH REGIONAL WEATHER ROUNDUP
NATIONAL WEATHER SERVICE SALT LAKE CITY UT
1200 PM MDT THU JUL 30 2015

UTZ001>011-023>025-301900-

NORTHERN UTAH

CITY           SKY/WX    TMP DP  RH WIND       PRES   REMARKS
BRIGHAM CITY   SUNNY     80  26  13 N3        30.32F
HILL AFB       SUNNY     80  39  22 N7        30.34S
LOGAN          SUNNY     75  35  23 VRB3      30.35S
OGDEN          SUNNY     82  35  18 N7        30.32S
PROVO AIRPORT  SUNNY     75  45  33 VRB5      30.33S
SALT LAKE CITY MOSUNNY   82  34  17 N12       30.30S
VERNAL         SUNNY     82  29  14 VRB3      30.35F
WENDOVER       NOT AVBL
HEBER CITY     SUNNY     73  27  17 CALM      30.40F
WEST JORDAN    SUNNY     82  36  18 N3        30.33S

$$

UTZ012>022-026-027-301900-

SOUTHERN/CENTRAL UTAH

CITY           SKY/WX    TMP DP  RH WIND       PRES   REMARKS
BLANDING       SUNNY     79  51  37 SE5       30.45F
BRYCE CANYON   SUNNY     79  32  18 S9G17     30.50S
CEDAR CITY     SUNNY     83  23  11 W3        30.34S
DELTA          SUNNY     87  25  10 N6        30.30F
HANKSVILLE     SUNNY     88  32  13 NE3       30.29S
MILFORD        MOSUNNY   87  28  12 N15G21    30.30S
MOAB/CYNLANDS  SUNNY     88  41  19 MISG      30.26F
PRICE          SUNNY     85  19   9 SE7       30.36F
ST GEORGE      CLEAR     91  45  19 NW5       30.16S
KANAB          SUNNY     90  48  24 E10       30.33F

$$

REGIONAL REPORTS     COLORADO/ARIZONA

CITY           SKY/WX    TMP DP  RH WIND       PRES   REMARKS
CRAIG, CO      SUNNY     85  33  15 VRB3      30.41F
GRAND JUNCTION SUNNY     83  33  16 VRB5      30.30F
RIFLE          SUNNY     82  36  19 VRB3      30.35F
MONTROSE       SUNNY     84  41  21 VRB5      30.37F
CORTEZ         SUNNY     81  52  36 VRB6      30.38F
PAGE, AZ       MOSUNNY   86  54  33 VRB5      30.26S
GRAND CANYON   PTSUNNY   76  50  40 E8        30.43R
KINGMAN        PTSUNNY   89  53  29 W7        30.18S
FLAGSTAFF      CLOUDY    65  55  70 E9        30.46R

$$

REGIONAL REPORTS    NEVADA/IDAHO/WYOMING

CITY           SKY/WX    TMP DP  RH WIND       PRES   REMARKS
LAS VEGAS, NV  PTSUNNY   99  48  17 N9        30.04S HX  95
ELY            SUNNY     81  23  11 MISG      30.40F
ELKO           SUNNY     82  31  15 CALM      30.34S
POCATELLO, ID  SUNNY     79  43  27 CALM      30.35S
BURLEY         SUNNY     79  43  27 E7        30.30F
EVANSTON, WY   SUNNY     74  22  14 NW6       30.50S
ROCK SPRINGS   SUNNY     75  28  17 CALM      30.47F
KEMMERER       SUNNY     73  23  15 W3        30.51F

$$



USA.gov is the U.S. government's official web portal to all federal, state and local government web resources and services.